Wind_Speed
18 18 16 15 8 10 20 19 14 14 7 5 6 9 10 10 10 12 13 10 15 13 15 15 13 10 8 7 2 3 6 8 12 14 12 13 15 15 14 11 9 11 13 12 13 13 12 11 11
19 19 17 16 13 21 21 23 18 13 11 10 8 11 9 8 11 16 12 5 9 10 16 15 13 10 9 7 3 4 6 7 9 12 12 13 13 16 13 11 10 11 12 13 13 13 11 11 10
18 19 17 11 22 30 26 23 15 15 12 13 17 12 11 5 11 17 12 7 8 9 16 16 15 12 10 7 6 7 6 5 6 10 12 12 13 15 12 12 12 11 12 13 13 13 11 10 10
18 20 20 21 25 17 15 13 14 15 13 12 16 14 11 11 9 10 11 7 10 11 14 17 14 10 6 6 10 10 9 7 6 8 10 12 13 14 13 12 13 13 13 13 13 12 11 11 12
20 24 25 25 30 27 21 24 20 18 16 14 15 19 18 13 13 9 15 16 17 14 14 16 12 10 10 12 12 12 10 7 6 6 9 12 13 14 14 14 14 14 14 14 13 13 11 10 11
23 25 23 28 30 26 22 25 23 22 21 18 16 12 13 13 16 16 17 18 15 11 12 12 12 11 13 13 15 13 11 10 8 5 8 11 12 14 15 17 15 15 15 15 15 14 12 11 11
26 27 30 31 33 30 24 25 21 21 21 18 16 12 10 9 11 15 15 14 12 16 16 14 11 10 11 12 13 14 14 12 10 8 8 10 11 13 14 15 15 15 15 16 17 16 14 13 13
28 29 34 35 35 34 27 28 28 23 19 17 15 8 11 8 11 17 19 16 15 17 17 15 14 15 14 13 12 15 16 15 12 10 10 10 11 12 13 14 14 15 15 17 18 17 17 17 18
28 33 38 38 35 33 27 28 26 24 26 26 21 11 8 8 9 19 20 21 19 19 18 18 18 18 17 16 14 14 17 17 13 13 11 10 10 12 13 13 13 15 15 18 19 18 19 20 21
30 38 39 37 32 33 28 30 28 28 27 29 28 18 11 9 10 19 22 24 22 20 20 21 21 20 19 19 18 17 17 18 16 15 14 11 11 11 12 13 14 15 16 19 19 19 22 21 20
34 41 36 37 32 32 31 30 29 32 32 26 31 29 20 15 14 18 24 22 21 22 22 23 20 21 21 23 22 21 19 19 20 19 16 13 11 12 11 12 13 14 16 18 20 21 22 22 22
36 38 35 34 31 32 35 32 34 33 33 28 28 30 31 24 16 14 19 24 25 21 23 23 22 25 25 25 24 25 23 21 23 22 18 16 13 10 11 11 12 13 15 18 20 21 22 23 22
31 34 33 33 33 33 33 33 32 35 31 31 30 30 31 31 28 23 18 22 27 36 28 28 28 25 25 27 26 25 25 26 26 26 22 18 15 11 11 10 10 12 15 19 21 22 23 23 23
28 25 25 27 28 30 33 34 31 31 25 30 31 30 30 32 31 32 30 27 28 30 33 34 34 31 29 28 27 25 23 24 31 30 26 21 18 15 11 10 9 11 13 17 20 22 24 24 26
29 31 32 31 28 30 28 35 32 29 28 30 32 34 35 34 36 37 36 35 33 35 36 36 36 36 35 34 31 29 26 25 30 33 30 25 21 19 13 12 10 11 13 16 18 21 24 26 26
23 23 26 21 21 20 21 32 28 19 21 24 28 31 35 37 38 38 39 41 39 40 42 42 41 41 39 39 36 32 29 26 27 34 34 30 25 22 18 15 13 13 13 15 18 19 24 26 26
22 25 26 27 21 24 25 30 20 13 21 26 26 28 31 35 37 37 37 38 39 39 37 37 40 46 46 42 40 38 35 31 26 29 37 33 29 25 22 19 16 15 14 15 16 17 23 26 29
17 18 18 21 21 23 29 35 29 24 25 29 31 31 34 37 37 37 37 37 37 37 35 35 35 36 42 47 47 43 40 36 33 32 34 37 33 29 26 23 20 17 15 15 15 15 20 23 26
23 24 26 24 14 21 28 33 28 24 25 26 29 31 30 28 30 32 36 40 41 42 40 38 37 35 36 39 49 48 47 43 38 32 35 34 36 34 30 27 24 21 17 14 16 17 20 22 23
14 17 21 18 7 22 26 37 30 25 25 24 26 24 27 29 31 33 34 36 37 44 43 41 40 38 34 37 38 47 41 39 39 34 36 36 33 36 34 31 27 24 20 17 16 19 20 21 23
18 20 16 18 17 20 26 42 30 22 23 16 24 31 25 24 26 27 26 27 29 36 46 41 39 42 38 32 35 42 40 39 42 40 37 37 37 38 33 32 30 27 24 21 17 20 23 22 22
22 18 17 15 15 12 13 15 32 13 11 31 20 16 18 23 26 26 23 20 23 23 34 41 33 38 43 36 36 41 41 40 39 41 36 37 39 39 36 31 30 30 26 24 20 21 25 24 25
15 12 15 15 17 23 16 8 31 25 29 20 20 21 21 27 28 23 24 26 25 25 28 37 44 39 42 41 37 36 40 41 37 34 40 39 38 34 28 26 31 31 28 27 24 22 25 26 26
16 14 11 14 15 8 17 15 33 23 21 25 19 25 32 30 31 35 37 32 27 30 29 34 32 35 41 46 43 40 38 36 37 39 37 36 36 35 28 27 32 32 29 28 26 24 25 27 24
8 6 2 3 3 6 1 9 25 16 21 24 29 28 27 29 36 40 43 38 38 35 31 24 21 27 35 43 48 46 47 40 32 36 35 35 34 37 30 30 33 32 29 29 27 26 26 27 27
3 3 2 4 3 4 21 8 10 16 22 31 27 28 28 31 38 39 40 35 33 28 28 24 28 20 28 30 30 35 39 37 38 37 35 33 36 35 32 28 32 30 31 30 28 26 25 27 28
4 4 4 7 14 7 10 16 23 24 24 23 26 25 31 31 43 28 23 20 26 26 32 24 21 20 24 24 31 34 35 29 33 39 34 37 37 35 34 31 33 32 30 30 28 26 23 26 26
4 7 4 4 3 5 8 8 11 8 13 17 25 32 35 37 35 20 22 16 16 21 22 22 22 21 20 26 26 29 30 31 32 35 37 41 39 36 33 33 33 32 29 29 26 25 23 26 26
15 8 8 9 9 3 3 4 6 16 20 24 25 25 29 20 12 12 24 15 10 11 13 15 16 19 23 31 26 29 33 34 36 35 37 40 40 35 35 35 32 29 29 27 25 24 23 25 23
8 2 3 4 3 6 5 10 13 12 28 24 22 20 21 25 22 19 24 15 9 8 9 13 16 16 16 18 22 23 29 32 31 37 38 37 40 35 33 34 31 29 28 26 24 23 22 23 22
Wind_Direction
258 257 256 256 245 237 252 259 261 260 300 289 299 295 272 264 262 281 305 294 216 213 215 205 210 227 252 271 279 3 4 338 331 324 293 266 275 275 287 281 258 231 231 237 238 237 236 244 245
254 250 248 247 236 236 260 270 269 272 263 261 263 271 251 248 266 284 297 257 191 208 208 205 213 229 250 253 275 321 337 331 328 332 309 277 267 272 280 276 269 245 233 230 234 243 245 250 242
263 250 242 234 245 239 255 276 281 267 265 262 255 251 253 269 287 292 283 267 210 225 211 219 220 230 241 246 280 304 309 314 310 321 310 286 270 274 276 274 280 251 240 239 240 248 247 245 242
261 253 239 231 244 258 267 289 278 281 263 258 253 232 257 239 246 272 287 258 234 229 230 216 218 227 237 280 302 297 291 297 300 312 301 285 274 274 273 272 274 260 249 244 246 253 249 247 242
256 250 239 240 251 259 268 270 268 269 271 261 271 250 255 248 242 261 270 272 280 267 238 215 217 234 260 280 281 278 278 280 286 305 292 282 276 272 271 268 266 257 253 248 252 255 251 248 242
250 247 242 245 259 267 268 271 275 273 269 255 272 288 266 258 255 255 261 271 268 236 221 225 242 267 270 269 274 266 264 262 267 286 283 276 274 269 266 262 261 256 256 252 250 254 252 243 233
252 253 252 257 263 264 268 271 273 267 267 250 261 283 247 230 230 248 246 235 223 208 214 231 252 264 278 283 268 264 262 254 255 262 271 269 271 269 266 261 257 254 257 254 250 250 249 246 228
251 252 252 257 260 267 268 269 268 267 259 246 256 271 227 236 230 232 213 225 220 229 234 244 258 268 274 285 274 263 265 252 252 250 262 263 264 265 265 261 259 255 256 252 249 247 244 246 241
250 248 251 256 262 271 276 272 270 269 267 255 248 268 283 245 232 214 217 228 235 240 243 246 262 270 265 265 274 265 262 254 260 253 260 260 262 263 265 263 257 254 252 250 250 250 244 241 245
247 250 257 263 269 270 269 268 269 266 264 257 245 235 246 244 220 215 222 224 243 243 254 253 260 259 255 259 265 258 251 254 254 252 254 254 256 261 263 263 259 255 254 252 252 251 255 248 244
252 254 263 267 271 273 272 265 268 267 263 256 251 235 230 225 224 220 227 231 236 240 246 252 257 254 254 261 259 255 250 253 252 253 252 249 251 261 264 266 269 266 263 261 256 255 256 254 253
258 261 266 269 271 271 272 271 262 261 269 266 252 249 238 230 234 241 232 224 232 241 242 243 250 253 254 255 254 254 253 250 251 251 250 251 248 252 259 264 272 271 265 260 256 256 256 256 251
256 264 265 268 266 267 270 269 271 262 265 265 262 253 251 247 246 252 248 239 234 235 231 248 251 250 250 253 254 249 251 253 250 250 249 251 246 238 248 260 269 275 271 262 257 256 256 255 251
260 265 264 264 268 271 273 274 266 268 270 269 266 268 260 256 252 250 254 253 250 247 246 246 239 246 248 246 252 252 258 254 244 245 247 250 249 240 241 258 273 283 280 266 256 253 254 253 247
259 264 265 270 277 278 282 274 269 276 270 264 265 267 269 264 258 257 254 259 262 257 249 247 240 238 239 247 244 246 255 256 247 241 244 245 248 248 242 255 271 285 286 273 257 252 254 246 240
259 267 276 279 286 286 284 281 282 279 272 268 267 268 269 268 267 262 259 256 260 261 257 252 247 247 240 244 247 248 250 251 250 241 236 239 244 248 251 254 264 278 291 281 257 251 253 244 243
262 265 273 282 283 280 272 280 281 262 268 275 277 272 272 271 265 263 263 260 259 256 255 252 250 249 245 244 247 244 246 243 249 244 234 236 239 246 253 257 261 271 290 290 266 253 251 246 243
261 270 280 285 282 280 274 270 280 284 279 278 277 278 279 278 278 272 261 251 250 251 252 256 253 253 244 243 244 244 242 242 247 245 236 235 236 242 249 257 261 267 283 290 276 266 256 254 248
268 271 277 284 295 282 280 284 286 282 282 284 284 283 287 290 278 276 271 260 254 251 257 258 256 259 255 245 240 238 240 245 243 245 239 235 233 237 243 252 258 264 273 284 275 265 255 251 248
262 268 275 292 288 300 297 283 284 282 286 297 301 303 304 296 286 276 271 269 265 254 253 257 258 254 256 253 249 239 242 244 246 241 239 237 232 235 241 248 253 258 265 274 280 272 267 256 248
251 262 277 290 304 287 300 291 292 291 302 306 312 306 296 296 303 302 290 280 275 265 254 255 252 250 249 247 240 237 235 237 241 237 237 237 235 236 238 244 248 253 260 268 278 270 265 262 258
267 270 282 289 302 292 307 292 299 300 300 317 318 316 312 309 306 309 301 284 273 268 254 246 250 252 246 242 243 239 240 243 243 237 233 242 245 236 235 242 244 248 256 263 273 272 268 259 259
285 298 283 277 275 296 267 230 286 292 311 320 324 316 314 321 311 306 299 291 285 281 274 257 251 259 242 239 238 245 245 243 244 248 237 238 244 236 230 241 243 244 253 261 269 270 269 262 258
278 295 282 267 265 256 250 211 280 303 308 318 319 315 308 309 305 298 296 288 290 284 283 265 247 249 233 237 236 237 247 244 242 239 240 236 238 236 240 245 240 240 249 258 269 270 265 259 251
272 277 301 276 194 235 306 213 263 291 302 310 310 307 307 310 315 308 304 281 274 274 266 256 263 245 233 230 239 241 238 239 241 235 230 233 233 235 243 244 234 237 249 256 265 270 264 256 248
200 42 204 248 229 281 301 261 272 277 288 300 302 305 314 322 328 310 304 289 273 269 243 244 250 264 234 232 230 229 232 237 236 227 222 234 235 239 247 243 236 237 247 256 267 269 263 256 244
246 288 272 272 280 263 255 260 274 280 283 286 287 298 313 310 325 301 303 294 279 253 239 243 253 262 233 231 225 226 231 232 228 224 223 229 231 233 238 241 233 236 245 256 265 264 257 253 247
282 258 268 227 276 242 259 253 256 270 276 284 305 312 311 314 315 297 318 307 277 271 256 250 263 256 229 229 220 219 223 225 225 221 223 224 229 231 236 236 233 237 243 256 262 257 251 253 248
289 275 205 227 248 243 312 289 315 313 319 315 314 326 330 324 315 303 324 314 299 270 270 270 252 229 227 230 232 233 227 227 225 223 218 222 224 233 233 232 232 234 243 255 257 253 255 258 258
238 252 241 223 267 277 280 267 285 306 330 324 300 307 333 323 314 311 316 325 323 289 259 265 238 229 241 237 231 230 228 224 225 226 220 218 222 232 227 229 228 233 246 255 253 250 255 259 262
Height
3122 3123 3124 3126 3133 3127 3122 3123 3125 3126 3128 3127 3127 3127 3127 3128 3128 3130 3128 3129 3130 3133 3136 3137 3138 3139 3139 3140 3141 3142 3142 3144 3145 3145 3144 3145 3145 3146 3147 3148 3149 3150 3151 3152 3153 3154 3155 3157 3157
3119 3120 3121 3123 3126 3122 3119 3120 3123 3126 3125 3125 3126 3124 3124 3124 3126 3127 3127 3128 3130 3133 3134 3136 3137 3138 3139 3139 3140 3141 3140 3142 3143 3143 3143 3143 3144 3144 3145 3146 3147 3148 3149 3151 3152 3153 3154 3156 3156
3117 3117 3119 3121 3118 3117 3118 3118 3121 3122 3122 3121 3121 3122 3122 3124 3124 3126 3127 3128 3129 3131 3133 3135 3136 3136 3137 3139 3139 3139 3139 3140 3141 3141 3141 3141 3141 3142 3143 3144 3145 3146 3148 3150 3151 3152 3153 3154 3155
3113 3115 3115 3114 3112 3115 3117 3117 3117 3119 3119 3119 3118 3121 3119 3121 3122 3124 3126 3128 3129 3131 3132 3133 3134 3136 3137 3138 3139 3139 3139 3139 3139 3139 3139 3139 3139 3140 3141 3142 3143 3145 3146 3148 3149 3151 3152 3153 3154
3109 3109 3109 3108 3108 3112 3115 3114 3116 3115 3116 3118 3115 3114 3117 3119 3121 3122 3125 3127 3128 3128 3129 3131 3133 3135 3136 3137 3137 3137 3137 3137 3137 3137 3137 3138 3138 3138 3139 3141 3142 3143 3145 3146 3147 3149 3150 3152 3154
3104 3104 3103 3102 3105 3109 3113 3112 3112 3112 3112 3114 3113 3114 3115 3116 3118 3121 3122 3124 3124 3126 3127 3128 3130 3132 3134 3135 3135 3135 3135 3135 3136 3135 3135 3136 3136 3137 3137 3139 3140 3141 3142 3144 3145 3146 3148 3150 3153
3099 3098 3097 3099 3101 3105 3109 3107 3108 3107 3107 3110 3110 3109 3110 3110 3111 3114 3118 3119 3121 3123 3125 3127 3128 3129 3131 3132 3132 3133 3134 3134 3134 3133 3133 3133 3134 3135 3135 3136 3138 3139 3140 3141 3142 3144 3146 3148 3150
3095 3094 3091 3093 3095 3098 3104 3104 3104 3103 3105 3105 3105 3105 3106 3106 3108 3110 3113 3116 3117 3119 3121 3123 3125 3126 3127 3128 3129 3131 3132 3132 3131 3131 3131 3131 3131 3132 3133 3134 3135 3136 3138 3138 3139 3141 3142 3144 3146
3091 3088 3083 3086 3091 3094 3099 3099 3100 3100 3100 3101 3103 3104 3103 3102 3104 3107 3110 3112 3114 3116 3118 3119 3121 3123 3125 3125 3126 3127 3129 3130 3130 3130 3130 3129 3129 3130 3131 3133 3133 3133 3134 3135 3136 3137 3139 3141 3143
3085 3079 3080 3084 3088 3088 3093 3092 3095 3093 3094 3096 3098 3099 3098 3098 3098 3102 3106 3109 3112 3113 3115 3117 3118 3120 3121 3123 3123 3124 3125 3127 3128 3127 3127 3127 3127 3128 3129 3130 3130 3131 3132 3132 3133 3134 3135 3137 3140
3077 3073 3079 3078 3083 3084 3084 3087 3088 3086 3086 3090 3090 3095 3097 3096 3096 3097 3100 3105 3108 3109 3112 3114 3116 3117 3117 3119 3120 3121 3122 3124 3125 3125 3125 3125 3125 3126 3127 3128 3128 3128 3129 3129 3130 3131 3132 3134 3137
3072 3071 3075 3075 3078 3078 3078 3081 3079 3081 3081 3085 3087 3088 3090 3093 3093 3094 3096 3099 3103 3105 3108 3109 3110 3112 3113 3114 3115 3117 3118 3120 3122 3122 3122 3123 3122 3123 3124 3125 3125 3125 3125 3125 3126 3127 3129 3130 3133
3067 3068 3070 3070 3070 3071 3073 3072 3074 3074 3079 3080 3080 3081 3083 3085 3088 3090 3092 3094 3096 3097 3098 3103 3104 3106 3108 3108 3110 3111 3113 3116 3117 3118 3119 3120 3120 3120 3121 3122 3122 3122 3122 3122 3122 3123 3125 3126 3128
3064 3064 3064 3064 3065 3066 3066 3067 3068 3069 3075 3073 3074 3075 3076 3077 3080 3081 3084 3087 3089 3091 3093 3091 3096 3099 3100 3102 3104 3106 3108 3110 3111 3113 3115 3117 3117 3117 3117 3118 3118 3119 3118 3118 3118 3120 3120 3121 3123
3060 3058 3058 3059 3062 3061 3062 3056 3061 3065 3066 3067 3066 3067 3068 3069 3071 3073 3076 3077 3080 3081 3084 3085 3087 3090 3090 3093 3096 3099 3100 3103 3105 3107 3110 3112 3113 3114 3113 3114 3115 3115 3114 3113 3113 3115 3116 3117 3119
3056 3054 3053 3055 3057 3059 3058 3050 3056 3060 3059 3060 3060 3059 3060 3061 3062 3064 3066 3067 3070 3070 3073 3076 3079 3080 3082 3083 3087 3090 3092 3095 3097 3100 3103 3106 3108 3110 3110 3110 3111 3111 3110 3109 3108 3110 3110 3112 3114
3050 3050 3050 3051 3055 3054 3053 3046 3050 3053 3053 3053 3053 3053 3052 3053 3054 3055 3056 3057 3059 3061 3062 3064 3066 3068 3072 3075 3078 3081 3085 3087 3090 3092 3096 3099 3102 3104 3106 3106 3107 3106 3106 3104 3104 3105 3105 3107 3109
3046 3047 3047 3047 3049 3048 3044 3039 3044 3048 3047 3045 3045 3046 3045 3044 3044 3045 3043 3043 3045 3049 3051 3053 3056 3057 3060 3063 3067 3071 3075 3078 3082 3085 3089 3092 3095 3098 3101 3101 3102 3102 3102 3100 3100 3100 3101 3102 3104
3044 3043 3042 3043 3045 3040 3037 3033 3036 3040 3039 3039 3038 3037 3035 3034 3033 3033 3032 3033 3036 3038 3040 3043 3046 3048 3050 3051 3054 3059 3063 3069 3074 3077 3082 3084 3088 3091 3094 3096 3097 3097 3097 3097 3096 3096 3097 3097 3099
3041 3039 3039 3039 3041 3038 3033 3024 3029 3032 3032 3032 3030 3029 3027 3026 3025 3025 3024 3024 3025 3026 3029 3033 3036 3039 3040 3042 3045 3051 3056 3060 3066 3070 3073 3076 3080 3084 3087 3089 3091 3093 3093 3093 3091 3091 3093 3092 3094
3036 3035 3037 3036 3036 3035 3031 3016 3021 3024 3026 3025 3024 3021 3018 3016 3015 3013 3013 3013 3015 3016 3018 3022 3024 3028 3031 3034 3038 3041 3046 3050 3054 3059 3065 3069 3072 3076 3079 3082 3085 3087 3087 3088 3087 3087 3087 3087 3088
3031 3033 3033 3033 3033 3032 3033 3018 3015 3016 3018 3018 3016 3015 3014 3012 3009 3006 3004 3005 3005 3006 3008 3011 3014 3017 3021 3025 3028 3031 3036 3041 3045 3051 3058 3061 3065 3068 3071 3075 3077 3080 3081 3082 3082 3082 3081 3081 3081
3028 3028 3029 3030 3029 3028 3027 3030 3001 3008 3012 3013 3013 3010 3008 3006 3004 3001 2999 2998 2998 2997 2997 3000 3003 3005 3010 3015 3020 3024 3028 3033 3038 3042 3048 3053 3058 3061 3064 3067 3069 3072 3075 3076 3076 3075 3075 3074 3075
3024 3025 3026 3025 3026 3023 3019 3023 3001 3005 3007 3007 3006 3005 3002 2999 2997 2995 2993 2991 2989 2989 2989 2991 2991 2993 2997 3004 3010 3015 3020 3024 3028 3033 3039 3044 3051 3054 3057 3059 3061 3065 3068 3069 3069 3068 3068 3069 3068
3023 3023 3023 3024 3022 3016 3014 3016 3004 3004 3004 3002 2999 2997 2995 2992 2988 2984 2982 2981 2980 2980 2980 2982 2982 2984 2988 2993 2998 3004 3011 3016 3020 3025 3031 3037 3043 3047 3050 3052 3053 3057 3061 3062 3062 3061 3061 3062 3062
3019 3021 3022 3019 3016 3013 3011 3006 3002 3004 3002 2999 2995 2992 2989 2985 2982 2976 2970 2967 2967 2969 2971 2973 2976 2977 2980 2985 2988 2995 3001 3007 3012 3018 3022 3030 3036 3040 3044 3044 3047 3050 3053 3055 3054 3054 3054 3056 3056
3017 3018 3020 3017 3014 3013 3004 3002 3001 2999 2997 2995 2993 2990 2985 2981 2977 2973 2967 2961 2959 2961 2964 2967 2970 2971 2972 2976 2981 2987 2994 2999 3004 3010 3014 3022 3027 3030 3034 3037 3040 3042 3045 3047 3047 3047 3048 3050 3051
3012 3015 3017 3016 3014 3008 2998 2997 2996 2995 2994 2992 2989 2985 2981 2975 2972 2969 2964 2958 2955 2955 2957 2961 2963 2964 2966 2972 2976 2981 2986 2990 2996 3002 3006 3012 3018 3022 3026 3029 3032 3036 3038 3040 3040 3040 3042 3043 3044
3008 3009 3011 3012 3010 3007 3001 2997 2994 2994 2993 2989 2985 2981 2976 2970 2968 2966 2961 2957 2953 2951 2953 2954 2957 2959 2962 2966 2970 2975 2979 2984 2991 2994 2998 3004 3009 3013 3017 3021 3025 3028 3030 3032 3033 3034 3035 3036 3036
3004 3005 3007 3007 3007 3005 3002 2994 2992 2992 2989 2985 2982 2979 2976 2971 2966 2963 2958 2955 2951 2950 2950 2951 2952 2955 2957 2960 2965 2969 2973 2978 2981 2986 2990 2995 3001 3005 3010 3014 3017 3020 3023 3025 3026 3028 3029 3029 3028